Voltar ao catálogo

ZHANGHENG 1-02

AtivoCiênciaSSO
NORAD 64393·PAYLOAD·🇨🇳 China

Lançado Jun 14, 2025 de Jiuquan Satellite Launch Center

Loading…

Próximas Passagens (próximas 24 horas)

TLE

AtualizadoSource: Space-Track

Época: Sep 14, 2026, 15:43 UTC

1 64393U 25128A   26257.65549362  .00000039  00000-0  48477-5 0  9992
2 64393  97.3702  22.4358 0009015 137.7702 222.4229 15.20628902 69532

Acompanhe ZHANGHENG 1-02 em tempo real com AllMySat

Download on the App Store